Location: Unspecified
(42.3650°N, 71.1030°W)
Time: 02:25:47
(UTC+00:00)

Explorer 11/Cluster Stage 4 - Pass Details

Date: 26 June 2024
Orbit: 465 x 1216 km, 28.8° (Epoch: 13 July)

Event Time Altitude Azimuth Distance (km) Brightness Sun altitude
Rises 22:22:23 0° 215° (SW) 3,773 10.4 19.9°
Reaches altitude 10° 22:25:56 10° 198° (SSW) 2,940 9.6 19.3°
Maximum altitude 22:30:40 18° 158° (SSE) 2,494 8.9 18.5°
Drops below altitude 10° 22:35:39 10° 118° (ESE) 3,138 9.1 17.6°
Sets 22:39:36 0° 102° (ESE) 4,124 9.6 16.9°
